Date String (YYYY-MM-DD hh:mm:ss) UTC,Instrument flags,Ambient pressure (hPa),Sample flow (lpm),Bypass flow (lpm),Sample temperature (°C),Ambient temperature (°C),ASC tube jacket temperature (°C),LED temperature (°C),Box temperature (°C),Sample RH (%),Span deviation,Mass concentration (μg/m³),Mass concentration (μg/m³),Mass concentration (μg/m³)
DateTimeUTC,F1_M11,P_M11,Q1_M11,Q2_M11,T1_M11,T2_M11,T3_M11,T4_M11,T5_M11,U1_M11,ZSPAN_M11,X0_M11,X2_M11,X1_M11
2022-05-30 23:00:00,,0817.4,4.99,0.00,27.3,26.4,00.0,36.3,29.3,13.1,0000.0,0004.83,0000.70,0000.38
2022-05-30 23:01:00,,0817.4,5.00,0.00,27.4,26.4,00.0,36.3,29.3,13.2,0000.0,0004.41,0000.72,0000.37
2022-05-30 23:02:00,,0817.2,5.00,0.00,27.4,26.4,00.0,36.3,29.3,13.3,0000.0,0004.38,0000.67,0000.36
2022-05-30 23:03:00,,0817.3,5.00,0.00,27.4,26.4,00.0,36.3,29.3,13.5,0000.0,0004.74,0000.66,0000.35
2022-05-30 23:04:00,,0817.4,5.01,0.00,27.4,26.4,00.0,36.3,29.3,13.5,0000.0,0004.96,0000.69,0000.35
2022-05-30 23:05:00,,0817.5,4.99,0.00,27.4,26.4,00.0,36.3,29.3,13.7,0000.0,0004.40,0000.69,0000.36
2022-05-30 23:06:00,,0817.5,5.00,0.00,27.4,26.4,00.0,36.3,29.3,14.1,0000.0,0003.82,0000.74,0000.37
2022-05-30 23:07:00,,0817.5,4.99,0.00,27.4,26.4,00.0,36.3,29.3,13.8,0000.0,0003.39,0000.80,0000.38
2022-05-30 23:08:00,,0817.4,5.01,0.00,27.4,26.4,00.0,36.3,29.3,13.8,0000.0,0003.50,0000.85,0000.39
2022-05-30 23:09:00,,0817.4,5.00,0.00,27.4,26.4,00.0,36.3,29.3,13.7,0000.0,0003.49,0000.85,0000.40
2022-05-30 23:10:00,,0817.4,4.99,0.00,27.4,26.4,00.0,36.3,29.3,13.7,0000.0,0003.46,0000.89,0000.40
2022-05-30 23:11:00,,0817.4,5.00,0.00,27.4,26.4,00.0,36.3,29.3,13.7,0000.0,0003.23,0000.91,0000.42
2022-05-30 23:12:00,,0817.3,5.00,0.00,27.4,26.4,00.0,36.3,29.3,13.5,0000.0,0003.10,0000.91,0000.43
2022-05-30 23:13:00,,0817.4,4.99,0.00,27.4,26.4,00.0,36.3,29.3,13.5,0000.0,0003.12,0000.94,0000.44
2022-05-30 23:14:00,,0817.0,5.01,0.00,27.4,26.4,00.0,36.3,29.3,13.5,0000.0,0002.91,0001.01,0000.45
2022-05-30 23:15:00,,0817.0,5.00,0.00,27.4,26.4,00.0,36.3,29.3,12.6,0000.0,0002.90,0001.04,0000.45
2022-05-30 23:16:00,,0817.1,5.02,0.00,27.4,26.4,00.0,36.3,29.3,13.0,0000.0,0003.10,0001.04,0000.45
2022-05-30 23:17:00,,0817.0,5.00,0.00,27.4,26.4,00.0,36.3,29.3,12.8,0000.0,0003.25,0001.03,0000.45
2022-05-30 23:18:00,,0817.1,5.01,0.00,27.4,26.4,00.0,36.3,29.3,12.4,0000.0,0003.07,0000.97,0000.44
2022-05-30 23:19:00,,0817.3,5.00,0.00,27.4,26.4,00.0,36.3,29.3,11.9,0000.0,0002.93,0000.93,0000.43
2022-05-30 23:20:00,,0817.3,4.99,0.00,27.4,26.4,00.0,36.3,29.3,12.0,0000.0,0002.95,0000.95,0000.42
2022-05-30 23:21:00,,0817.4,5.01,0.00,27.4,26.4,00.0,36.3,29.3,12.1,0000.0,0002.80,0000.90,0000.42
2022-05-30 23:22:00,,0817.4,5.00,0.00,27.4,26.4,00.0,36.3,29.3,12.3,0000.0,0002.77,0000.88,0000.41
2022-05-30 23:23:00,,0817.3,5.02,0.00,27.4,26.4,00.0,36.3,29.3,11.8,0000.0,0002.78,0000.88,0000.40
2022-05-30 23:24:00,,0817.5,4.99,0.00,27.4,26.4,00.0,36.3,29.3,11.5,0000.0,0002.72,0000.84,0000.40
2022-05-30 23:25:00,,0817.5,5.01,0.00,27.4,26.4,00.0,36.3,29.3,11.7,0000.0,0002.41,0000.76,0000.40
2022-05-30 23:26:00,,0817.5,5.00,0.00,27.4,26.4,00.0,36.3,29.3,11.5,0000.0,0002.79,0000.69,0000.39
2022-05-30 23:27:00,,0817.5,5.01,0.00,27.4,26.4,00.0,36.3,29.3,11.3,0000.0,0002.94,0000.65,0000.38
2022-05-30 23:28:00,,0817.6,4.99,0.00,27.4,26.4,00.0,36.3,29.3,11.3,0000.0,0002.42,0000.58,0000.38
2022-05-30 23:29:00,,0817.5,5.00,0.00,27.4,26.3,00.0,36.3,29.2,11.8,0000.0,0002.45,0000.58,0000.38
2022-05-30 23:30:00,,0817.5,5.01,0.00,27.4,26.3,00.0,36.3,29.3,12.0,0000.0,0002.47,0000.57,0000.37
2022-05-30 23:31:00,,0817.5,5.00,0.00,27.4,26.4,00.0,36.3,29.3,11.9,0000.0,0002.40,0000.55,0000.38
2022-05-30 23:32:00,,0817.5,4.99,0.00,27.4,26.4,00.0,36.3,29.3,11.3,0000.0,0002.48,0000.59,0000.37
2022-05-30 23:33:00,,0817.6,4.99,0.00,27.4,26.4,00.0,36.3,29.3,10.5,0000.0,0002.44,0000.58,0000.37
2022-05-30 23:34:00,,0817.6,5.01,0.00,27.4,26.4,00.0,36.3,29.3,10.6,0000.0,0002.53,0000.57,0000.37
2022-05-30 23:35:00,,0817.7,5.00,0.00,27.4,26.3,00.0,36.3,29.2,10.7,0000.0,0002.86,0000.58,0000.37
2022-05-30 23:36:00,,0817.7,5.00,0.00,27.3,26.3,00.0,36.3,29.2,10.8,0000.0,0002.91,0000.61,0000.38
2022-05-30 23:37:00,,0817.7,5.00,0.00,27.3,26.3,00.0,36.3,29.2,11.1,0000.0,0002.86,0000.64,0000.39
2022-05-30 23:38:00,,0817.7,4.99,0.00,27.3,26.3,00.0,36.3,29.2,11.4,0000.0,0003.30,0000.65,0000.39
2022-05-30 23:39:00,,0817.8,5.01,0.00,27.3,26.3,00.0,36.3,29.1,11.4,0000.0,0003.63,0000.65,0000.39
2022-05-30 23:40:00,,0817.8,5.00,0.00,27.3,26.2,00.0,36.3,29.1,11.4,0000.0,0003.62,0000.66,0000.40
2022-05-30 23:41:00,,0817.8,4.99,0.00,27.3,26.3,00.0,36.3,29.2,11.2,0000.0,0003.67,0000.68,0000.41
2022-05-30 23:42:00,,0817.8,4.99,0.00,27.3,26.3,00.0,36.3,29.2,11.2,0000.0,0003.71,0000.70,0000.41
2022-05-30 23:43:00,,0817.8,5.00,0.00,27.3,26.3,00.0,36.3,29.2,10.9,0000.0,0003.67,0000.68,0000.41
2022-05-30 23:44:00,,0817.9,5.00,0.00,27.3,26.3,00.0,36.3,29.2,10.9,0000.0,0003.70,0000.68,0000.42
2022-05-30 23:45:00,,0818.0,5.00,0.00,27.3,26.3,00.0,36.3,29.2,11.5,0000.0,0003.56,0000.68,0000.43
2022-05-30 23:46:00,,0818.0,5.01,0.00,27.3,26.3,00.0,36.3,29.2,11.3,0000.0,0003.42,0000.73,0000.43
2022-05-30 23:47:00,,0818.1,4.99,0.00,27.3,26.2,00.0,36.3,29.1,11.3,0000.0,0003.35,0000.70,0000.42
2022-05-30 23:48:00,,0818.0,5.01,0.00,27.3,26.2,00.0,36.3,29.1,11.5,0000.0,0002.40,0000.69,0000.42
2022-05-30 23:49:00,,0818.0,5.01,0.00,27.3,26.2,00.0,36.3,29.1,11.5,0000.0,0001.59,0000.69,0000.43
2022-05-30 23:50:00,,0818.0,4.99,0.00,27.3,26.3,00.0,36.3,29.1,11.1,0000.0,0001.35,0000.73,0000.43
2022-05-30 23:51:00,,0817.9,5.00,0.00,27.3,26.3,00.0,36.3,29.1,11.0,0000.0,0001.40,0000.76,0000.44
2022-05-30 23:52:00,,0817.9,5.00,0.00,27.3,26.3,00.0,36.3,29.2,11.0,0000.0,0001.44,0000.78,0000.44
2022-05-30 23:53:00,,0817.9,5.00,0.00,27.3,26.3,00.0,36.3,29.2,11.0,0000.0,0001.56,0000.81,0000.44
2022-05-30 23:54:00,,0818.0,5.00,0.00,27.3,26.3,00.0,36.2,29.2,10.9,0000.0,0001.62,0000.82,0000.44
2022-05-30 23:55:00,,0818.0,4.99,0.00,27.3,26.2,00.0,36.2,29.2,11.0,0000.0,0001.61,0000.82,0000.44
2022-05-30 23:56:00,,0818.0,5.00,0.00,27.3,26.2,00.0,36.2,29.1,11.4,0000.0,0001.77,0000.82,0000.44
2022-05-30 23:57:00,,0818.0,5.01,0.00,27.3,26.2,00.0,36.2,29.2,11.5,0000.0,0002.00,0000.75,0000.44
2022-05-30 23:58:00,,0818.0,4.99,0.00,27.3,26.3,00.0,36.2,29.2,11.3,0000.0,0002.01,0000.76,0000.45
2022-05-30 23:59:00,,0818.0,5.01,0.00,27.3,26.3,00.0,36.2,29.2,11.2,0000.0,0002.00,0000.75,0000.44
